Regional Weather Roundup
Issued by NWS Charleston, WV

Home | Current Version | Previous Version | Graphics & Text | Print | Product List | Glossary On
Versions: 1 2 3 4 5 6 7 8 9 10 11 12 13 14 15 16 17 18 19 20 21 22 23 24 25 26 27 28 29 30 31 32 33 34 35 36 37 38 39 40 41 42 43 44 45 46 47 48 49
000
ASUS41 KRLX 270810
RWRRLX
West Virginia Regional Weather Roundup
National Weather Service Charleston WV
400 AM EDT WED MAY 27 2015

Note: "fair" indicates few or no clouds below 12,000 feet with no
significant weather and/or obstructions to visibility.

WVZ003-270900-
Northern Panhandle of West Virginia

CITY           SKY/WX    TMP DP  RH WIND       PRES   REMARKS
WHEELING       NOT AVBL
$$

WVZ009-270900-
Northwest West Virginia

CITY           SKY/WX    TMP DP  RH WIND       PRES   REMARKS
PARKERSBURG    CLOUDY    66  64  93 S6        30.12S
$$

WVZ006-270900-
Western West Virginia

CITY           SKY/WX    TMP DP  RH WIND       PRES   REMARKS
HUNTINGTON     PTCLDY    65  64  97 SW6       30.09F
$$

WVZ015-270900-
West Central West Virginia

CITY           SKY/WX    TMP DP  RH WIND       PRES   REMARKS
CHARLESTON     CLOUDY    67  66  97 CALM      30.10F FOG
$$

WVZ022-031-270900-
North Central West Virginia

CITY           SKY/WX    TMP DP  RH WIND       PRES   REMARKS
CLARKSBURG     LGT RAIN  66  64  93 SW8       30.14F
MORGANTOWN     CLOUDY    70  61  73 SW6       30.14F
$$

WVZ025-035-042-045-270900-
Southern West Virginia

CITY           SKY/WX    TMP DP  RH WIND       PRES   REMARKS
BECKLEY        CLOUDY    66  60  81 S5        30.18F
LOGAN          CLOUDY    72  63  73 CALM      30.11F
BLUEFIELD      CLOUDY    68  60  75 SW8       30.21F
LEWISBURG      CLOUDY    64  62  93 CALM      30.18F
$$

WVZ047-270900-
Northern Mountains of West Virginia

CITY           SKY/WX    TMP DP  RH WIND       PRES   REMARKS
ELKINS         MOCLDY    68  60  75 CALM      30.17S
$$

WVZ052-270900-
Eastern Panhandle of West Virginia

CITY           SKY/WX    TMP DP  RH WIND       PRES   REMARKS
MARTINSBURG    CLEAR     68  66  93 S5        30.12F
PETERSBURG     CLEAR     72  61  70 S9        30.12F
$$


USA.gov is the U.S. government's official web portal to all federal, state and local government web resources and services.